Weather History for KLRU - December, 2012

Change the Weather History Date:

Sunday, December 9, 2012

  Actual Average Record
Temperature  
Mean Temperature 50 °F -  
Max Temperature 62 °F 53 °F 66 °F (1996)
Min Temperature 36 °F 30 °F 17 °F (2001)
Degree Days  
Heating Degree Days 16    
Moisture  
Dew Point 22 °F    
Average Humidity 37    
Maximum Humidity 60    
Minimum Humidity 19    
Precipitation  
Precipitation 0.00 in - - ()
Sea Level Pressure  
Sea Level Pressure 29.98 in    
Wind  
Wind Speed 18 mph (West)    
Max Wind Speed 33 mph    
Max Gust Speed 40 mph    
Visibility 10 miles    
Events      
Averages and records for this station are not official NWS values.
T = Trace of Precipitation, MM = Missing Value Source: NWS Daily Summary

Daily Weather History Graph

Daily Weather History Graph

Search for Another Location

Airport or City:

Trip Planner

Search our weather history database for the weather conditions in past years. The results will help you decide how hot, cold, wet, or windy it might be!

Date:

Astronomy

Dec. 09, 2012 Rise Set
Actual Time 6:57 AM MST 5:02 PM MST
Civil Twilight 6:30 AM MST 5:29 PM MST
Nautical Twilight 6:00 AM MST 6:00 PM MST
Astronomical Twilight 5:30 AM MST 6:30 PM MST
Moon 2:44 AM MST (12/9) 2:02 PM MST (12/9)
Length of Visible Light 10h 59m
Length of Day
10h 05m
Waning Crescent, 18% of the Moon is Illuminated
Dec 9
Waning Crescent
Dec 13
New
Dec 19
First Quarter
Dec 28
Full
Jan 4
Last Quarter

Hourly Weather History & Observations

Time (MST) Temp. Windchill Dew Point Humidity Pressure Visibility Wind Dir Wind Speed Gust Speed Precip Events Conditions
12:15 AM 46.9 °F - 26.1 °F 44% 29.95 in 10.0 mi West 15.0 mph - N/A   Clear
12:35 AM 47.3 °F - 25.7 °F 43% 29.94 in 10.0 mi West 18.4 mph - N/A   Clear
12:55 AM 47.1 °F - 25.5 °F 43% 29.95 in 10.0 mi West 17.3 mph - N/A   Clear
1:15 AM 47.3 °F - 25.2 °F 42% 29.95 in 10.0 mi West 16.1 mph - N/A   Clear
1:35 AM 46.6 °F - 25.2 °F 43% 29.95 in 10.0 mi West 15.0 mph - N/A   Clear
1:55 AM 46.2 °F 39.8 °F 24.8 °F 43% 29.96 in 10.0 mi West 15.0 mph - N/A   Clear
2:15 AM 44.6 °F 37.8 °F 24.8 °F 46% 29.96 in 10.0 mi West 15.0 mph - N/A   Clear
2:35 AM 44.1 °F 37.4 °F 24.8 °F 47% 29.96 in 10.0 mi West 13.8 mph - N/A   Clear
2:55 AM 44.1 °F 36.5 °F 24.8 °F 47% 29.96 in 10.0 mi West 17.3 mph - N/A   Clear
3:15 AM 44.8 °F 37.1 °F 25.3 °F 47% 29.96 in 10.0 mi West 18.4 mph - N/A   Clear
3:35 AM 43.9 °F 36.5 °F 25.5 °F 48% 29.96 in 10.0 mi West 16.1 mph - N/A   Clear
3:55 AM 43.2 °F 35.0 °F 25.5 °F 50% 29.96 in 10.0 mi West 18.4 mph - N/A   Clear
4:15 AM 41.9 °F 33.7 °F 25.5 °F 52% 29.96 in 10.0 mi West 17.3 mph - N/A   Clear
4:35 AM 41.0 °F 32.8 °F 25.3 °F 54% 29.96 in 10.0 mi West 16.1 mph - N/A   Clear
4:55 AM 41.4 °F 33.3 °F 25.7 °F 54% 29.96 in 10.0 mi West 16.1 mph - N/A   Clear
5:15 AM 42.1 °F 33.9 °F 26.6 °F 54% 29.96 in 10.0 mi West 17.3 mph - N/A   Clear
5:35 AM 42.1 °F 33.9 °F 27.0 °F 55% 29.97 in 10.0 mi West 17.3 mph - N/A   Clear
5:55 AM 41.4 °F 33.3 °F 26.8 °F 56% 29.97 in 10.0 mi West 16.1 mph - N/A   Clear
6:15 AM 40.8 °F 32.3 °F 27.0 °F 58% 29.97 in 10.0 mi West 17.3 mph - N/A   Clear
6:35 AM 41.0 °F 32.5 °F 27.1 °F 58% 29.97 in 10.0 mi West 17.3 mph - N/A   Clear
6:55 AM 40.1 °F 31.6 °F 27.1 °F 60% 29.97 in 10.0 mi West 16.1 mph - N/A   Clear
7:15 AM 39.4 °F 31.1 °F 26.6 °F 60% 29.98 in 10.0 mi West 15.0 mph - N/A   Clear
7:35 AM 39.6 °F 31.3 °F 26.6 °F 60% 29.99 in 10.0 mi West 15.0 mph - N/A   Clear
7:55 AM 39.6 °F 30.6 °F 26.6 °F 60% 29.99 in 10.0 mi West 17.3 mph - N/A   Clear
8:35 AM 44.8 °F 37.7 °F 27.5 °F 51% 29.99 in 10.0 mi West 16.1 mph - N/A   Clear
8:55 AM 46.6 °F - 27.5 °F 47% 30.00 in 10.0 mi West 15.0 mph - N/A   Clear
9:15 AM 49.3 °F - 26.6 °F 41% 30.00 in 10.0 mi West 15.0 mph - N/A   Clear
9:35 AM 51.4 °F - 26.4 °F 38% 30.00 in 10.0 mi West 10.4 mph - N/A   Clear
9:55 AM 52.7 °F - 25.7 °F 35% 30.00 in 10.0 mi West 13.8 mph - N/A   Clear
10:15 AM 54.9 °F - 26.1 °F 33% 30.00 in 10.0 mi West 15.0 mph - N/A   Clear
10:35 AM 57.0 °F - 26.6 °F 31% 30.00 in 10.0 mi WSW 15.0 mph 21.9 mph N/A   Clear
10:55 AM 57.7 °F - 27.1 °F 31% 29.99 in 10.0 mi SW 12.7 mph 19.6 mph N/A   Clear
11:15 AM 58.8 °F - 27.9 °F 31% 29.98 in 10.0 mi West 19.6 mph 27.6 mph N/A   Clear
11:35 AM 59.0 °F - 28.2 °F 31% 29.97 in 10.0 mi West 20.7 mph 27.6 mph N/A   Clear
11:55 AM 58.6 °F - 27.1 °F 30% 29.95 in 10.0 mi West 24.2 mph 33.4 mph N/A   Clear
12:15 PM 59.4 °F - 27.9 °F 30% 29.95 in 10.0 mi West 18.4 mph 31.1 mph N/A   Clear
12:35 PM 60.8 °F - 27.0 °F 28% 29.93 in 10.0 mi WSW 20.7 mph 27.6 mph N/A   Clear
12:55 PM 61.7 °F - 23.9 °F 24% 29.92 in 10.0 mi West 29.9 mph 36.8 mph N/A   Clear
1:15 PM 61.3 °F - 23.7 °F 24% 29.91 in 10.0 mi West 28.8 mph 35.7 mph N/A   Clear
1:35 PM 61.2 °F - 23.5 °F 24% 29.90 in 7.0 mi West 26.5 mph 35.7 mph N/A   Clear
1:55 PM 62.1 °F - 20.8 °F 21% 29.89 in 10.0 mi WSW 33.4 mph 38.0 mph N/A   Clear
2:15 PM 61.9 °F - 19.2 °F 19% 29.90 in 10.0 mi West 27.6 mph 38.0 mph N/A   Clear
2:35 PM 62.2 °F - 19.2 °F 19% 29.90 in 10.0 mi West 28.8 mph 38.0 mph N/A   Clear
2:55 PM 62.1 °F - 19.4 °F 19% 29.90 in 10.0 mi West 27.6 mph 35.7 mph N/A   Clear
3:15 PM 61.9 °F - 19.0 °F 19% 29.89 in 10.0 mi West 25.3 mph 40.3 mph N/A   Clear
3:35 PM 61.9 °F - 18.3 °F 19% 29.89 in 10.0 mi West 28.8 mph 35.7 mph N/A   Clear
3:55 PM 61.2 °F - 18.5 °F 19% 29.89 in 10.0 mi West 28.8 mph 38.0 mph N/A   Clear
4:15 PM 60.8 °F - 18.9 °F 20% 29.90 in 10.0 mi West 23.0 mph 33.4 mph N/A   Clear
4:35 PM 59.9 °F - 19.9 °F 21% 29.90 in 10.0 mi West 17.3 mph - N/A   Clear
4:55 PM 59.0 °F - 18.5 °F 21% 29.90 in 10.0 mi West 15.0 mph 21.9 mph N/A   Clear
5:15 PM 57.6 °F - 19.0 °F 22% 29.91 in 10.0 mi West 20.7 mph 26.5 mph N/A   Clear
5:35 PM 56.7 °F - 18.5 °F 23% 29.92 in 10.0 mi West 15.0 mph - N/A   Clear
5:55 PM 55.6 °F - 18.5 °F 23% 29.92 in 10.0 mi West 13.8 mph - N/A   Clear
6:15 PM 55.4 °F - 19.9 °F 25% 29.93 in 10.0 mi West 19.6 mph 26.5 mph N/A   Clear
6:35 PM 54.7 °F - 19.0 °F 25% 29.95 in 10.0 mi West 20.7 mph 27.6 mph N/A   Clear
6:55 PM 54.1 °F - 18.5 °F 25% 29.96 in 10.0 mi West 20.7 mph 27.6 mph N/A   Clear
7:15 PM 50.4 °F - 18.3 °F 28% 30.01 in 7.0 mi North 20.7 mph 32.2 mph N/A   Scattered Clouds
7:35 PM 43.7 °F 34.1 °F 17.8 °F 35% 30.04 in 4.0 mi North 26.5 mph 35.7 mph N/A   Haze
7:55 PM 42.3 °F 32.2 °F 20.3 °F 42% 30.06 in 5.0 mi North 26.5 mph 35.7 mph N/A   Haze
8:15 PM 41.0 °F 31.1 °F 20.3 °F 44% 30.08 in 7.0 mi North 23.0 mph 31.1 mph N/A   Overcast
8:35 PM 40.5 °F 30.0 °F 19.9 °F 44% 30.09 in 7.0 mi North 25.3 mph 33.4 mph N/A   Overcast
8:55 PM 39.6 °F 28.3 °F 20.1 °F 46% 30.11 in 7.0 mi North 27.6 mph 39.1 mph N/A   Overcast
9:15 PM 39.4 °F 27.9 °F 18.7 °F 43% 30.12 in 7.0 mi North 28.8 mph 36.8 mph N/A   Scattered Clouds
9:35 PM 39.4 °F 29.2 °F 17.1 °F 41% 30.13 in 10.0 mi North 21.9 mph 31.1 mph N/A   Clear
9:55 PM 39.4 °F 29.2 °F 15.1 °F 37% 30.14 in 10.0 mi North 21.9 mph 32.2 mph N/A   Clear
10:15 PM 39.2 °F 30.2 °F 13.1 °F 34% 30.15 in 10.0 mi North 17.3 mph 28.8 mph N/A   Clear
10:35 PM 39.2 °F 29.8 °F 12.4 °F 33% 30.16 in 10.0 mi North 18.4 mph 28.8 mph N/A   Clear
10:55 PM 38.8 °F 29.7 °F 11.3 °F 32% 30.16 in 10.0 mi North 17.3 mph 26.5 mph N/A   Clear
11:15 PM 38.3 °F 28.7 °F 9.5 °F 31% 30.17 in 10.0 mi NNE 18.4 mph 26.5 mph N/A   Clear
11:35 PM 37.4 °F 27.5 °F 8.6 °F 30% 30.17 in 10.0 mi North 18.4 mph 27.6 mph N/A   Clear
11:55 PM 36.3 °F 27.1 °F 7.3 °F 30% 30.17 in 10.0 mi North 15.0 mph 24.2 mph N/A   Clear